Location: Macksville High School
(37.9611°N, 99.9654°W)
Time: 10:18:48
(UTC+00:00)

SKYMED 2 - Pass Details

Date: 27 February 2020
Orbit: 621 x 623 km, 97.9° (Epoch: 28 March)

Event Time Altitude Azimuth Distance (km) Brightness Sun altitude
Rises 12:38:34 0° 192° (SSW) 2,889 6.9 -7.9°
Reaches altitude 10° 12:41:00 10° 204° (SSW) 1,987 6.0 -7.5°
Maximum altitude 12:44:43 28° 264° (W) 1,179 4.5 -6.7°
Drops below altitude 10° 12:48:28 10° 323° (NW) 2,000 5.8 -6.0°
Sets 12:50:56 0° 335° (NNW) 2,911 6.7 -5.5°
